Hourly Data Report for July 01, 2022

TORONTO INTL A
ONTARIO
Current Station Operator: NAVCAN

43°40'36.000" N
79°37'50.000" W
173.40 m
6158731
71624
YYZ

Download Data

Hourly Data (July 2022)
Hourly Data Report for July 1, 2022
TIME
LST
Temp Definition
°C
Dew Point Definition
°C
Rel Hum Definition
%
Precip. Amount Definition
mm

Wind Dir Definition
10's deg

Wind Spd Definition
km/h
Visibility Definition
km
Stn Press Definition
kPa
Hmdx Definition


Wind Chill Definition


Weather Definition


00:00 23.3 12.7 51   18 10 24.1 99.38 26   LegendNANA
01:00 23.2 12.7 51   21 8 24.1 99.38 26   Mostly Cloudy
02:00 23.1 13.2 53   21 12 24.1 99.29 26   LegendNANA
03:00 22.6 13.8 57   21 16 24.1 99.22 26   LegendNANA
04:00 22.5 14.2 59   21 12 24.1 99.17 26   Mostly Cloudy
05:00 21.8 14.6 63   20 11 24.1 99.20 26   LegendNANA
06:00 21.9 15.1 65   21 12 24.1 99.22 26   LegendNANA
07:00 22.9 15.4 62   24 15 24.1 99.23 27   Mostly Cloudy
08:00 23.9 15.6 59   24 13 24.1 99.23 28   LegendNANA
09:00 25.5 15.6 54   27 12 24.1 99.25 30   LegendNANA
10:00 24.9 14.6 52   29 13 24.1 99.26 29   Cloudy
11:00 23.3 17.4 69   19 9 16.1 99.22 29   Rain
12:00 25.5 17.9 63   18 10 24.1 99.19 31   LegendNANA
13:00 27.5 18.3 57   19 12 24.1 99.12 34   Mostly Cloudy
14:00 28.3 17.6 52   18 19 24.1 99.04 34   LegendNANA
15:00 29.0 16.9 48   22 22 24.1 98.97 34   LegendNANA
16:00 28.7 16.8 48   23 30 24.1 98.93 34   Cloudy
17:00 28.1 17.4 52   26 26 24.1 98.92 34   LegendNANA
18:00 27.4 16.9 52   26 21 24.1 98.88 33   LegendNANA
19:00 26.4 17.0 56   28 17 24.1 98.92 32   Mostly Cloudy
20:00 25.4 16.8 59   28 14 24.1 98.98 31   LegendNANA
21:00 24.6 17.1 63   28 13 24.1 99.02 30   LegendNANA
22:00 24.7 17.5 64   29 16 19.3 99.03 30   Rain
23:00 21.9 18.6 81   1 26 24.1 99.09 28   LegendNANA

Notes on Data Quality.

Legend

  • E = Estimated
  • M = Missing
  • NA = Not Available*
  • [empty] = Indicates an unobserved value
Date modified: